Flag for Canada Weather past 2 weeks in Vaughan, Ontario, Canada

Now
43 °F

Scattered clouds.


Feels Like: 34 °F
Forecast: 38 / 53 °F
Wind: 18 mph from Southeast

Location: Toronto Buttonville

Current Time: Apr 19, 2015 at 10:25:32 AM

Latest Report: Apr 19, 2015 at 10:00 AM


Visibility: 15 mi

Pressure: 30.27 "Hg

Humidity: 53%

Dew point: 27 °F

Location of VaughanLocation

Historic Weather in Vaughan — Graph

°F

Vaughan temperature yesterday

Maximum temperature yesterday: 64 °F (at 10:00 AM)
Minimum temperature yesterday: 41 °F (at 5:00 AM)
Average temperature yesterday: 53 °F

Past Weeks' High & Low Weather Summary

 TemperatureHumidityPressure
High73 °F (Apr 13, 4:00 PM)100% (Apr 8, 2:00 PM)30.42 "Hg (Apr 8, 2:00 PM)
Low27 °F (Apr 5, 4:00 AM)20% (Apr 14, 4:00 PM)29.41 "Hg (Apr 10, 11:00 AM)
Average45 °F63%30.12 "Hg
* Reported Apr 4 9:00 AM — Apr 19 9:00 AM, Vaughan, Weather by CustomWeather, © 2015

Note: Actual official high and low records may vary slightly from our data, if they occured in-between our weather recording intervals... More about our weather records

Advertising

Vaughan weather history for previous 24 hours

 ConditionsComfort  
Time TempWeatherWind HumidityBarometerVisibility
9:00 AM
Sun, Apr 19
41 °FPassing clouds.16 mph61%30.28 "Hg15 mi
8:00 AM39 °FPassing clouds.14 mph65%30.29 "Hg15 mi
7:00 AM37 °FPassing clouds.8 mph70%30.27 "Hg15 mi
6:00 AM37 °FPassing clouds.6 mph65%30.26 "Hg15 mi
5:00 AM39 °FPassing clouds.9 mph61%30.24 "Hg15 mi
4:00 AM41 °FPassing clouds.5 mph57%30.24 "Hg15 mi
3:00 AM41 °FClear.7 mph57%30.23 "Hg15 mi
2:00 AM43 °FClear.2 mph49%30.23 "Hg15 mi
1:00 AM45 °FClear.5 mph46%30.22 "Hg15 mi
12:00 AM46 °FClear.6 mph46%30.21 "Hg15 mi
11:00 PM
Sat, Apr 18
48 °FClear.7 mph46%30.21 "Hg15 mi
10:00 PM48 °FClear.7 mph50%30.21 "Hg15 mi
9:00 PM50 °FPassing clouds.9 mph47%30.19 "Hg15 mi
8:00 PM54 °FPassing clouds.9 mph41%30.17 "Hg15 mi
7:00 PM57 °FPassing clouds.12 mph39%30.16 "Hg15 mi
6:00 PM61 °FPassing clouds.10 mph36%30.13 "Hg15 mi
5:00 PM63 °FPassing clouds.13 mph30%30.11 "Hg15 mi
4:00 PM63 °FPassing clouds.16 mph30%30.08 "Hg15 mi
3:00 PM63 °FPassing clouds.14 mph30%30.07 "Hg15 mi
2:00 PM61 °FPassing clouds.15 mph39%30.06 "Hg15 mi
1:00 PM61 °FPassing clouds.20 mph36%30.04 "Hg15 mi
12:00 PM61 °FSunny.16 mph36%30.03 "Hg15 mi
11:00 AM63 °FSunny.18 mph42%30.01 "Hg15 mi
10:00 AM64 °FPassing clouds.23 mph43%29.96 "Hg15 mi
Weather by CustomWeather, © 2015

See weather overviewHow to use our weather pages